Regional Weather Roundup
Issued by NWS

Home | Current Version | Previous Version | Text Only | Print | Product List | Glossary Off
Versions: 1 2 3 4 5 6 7 8 9 10 11 12 13 14 15 16 17 18 19 20 21 22 23 24 25 26 27 28 29 30 31 32 33 34 35 36 37 38 39 40 41 42 43 44 45 46 47 48 49 50

000
ASUS44 KMEG 241400
RWRTN
TENNESSEE HOURLY STATE WEATHER ROUNDUP
NATIONAL WEATHER SERVICE MEMPHIS TN
900 AM CDT THU APR 24 2014

TNZ002-004-019-021-049-052-054-088>092-241500-
WEST TENNESSEE

CITY           SKY/WX    TMP DP  RH WIND       PRES   REMARKS
MEMPHIS INTL   CLOUDY    66  41  40 S10       29.92F
NWS MEMPHIS      N/A     64 N/A N/A MISG        N/A
JACKSON        MOSUNNY   64  39  39 S9        29.95S
DYERSBURG      MOSUNNY   61  37  41 SE8       29.94F
UNION CITY     SUNNY     59  41  51 S9        29.93F
LEXINGTON      SUNNY     57  39  51 S7        29.96S
$$

TNZ008-025-027-028-033-062-065-066-241500-
NORTH MIDDLE TENNESSEE

CITY           SKY/WX    TMP DP  RH WIND       PRES   REMARKS
NASHVILLE      MOSUNNY   57  41  55 VRB3      30.01S
CLARKSVILLE    SUNNY     56  40  55 SE5       29.98S
COOKEVILLE     SUNNY     61  37  41 S5        30.01S
CROSSVILLE     SUNNY     59  28  30 SE9       30.04S
$$

TNZ061-075-076-078-094-096-097-241500-
SOUTH MIDDLE TENNESSEE

CITY           SKY/WX    TMP DP  RH WIND       PRES   REMARKS
TULLAHOMA      SUNNY     63  34  34 SE12      30.02S
WINCHESTER     SUNNY     64  36  34 SE9       30.02S
MCMINNVILLE    SUNNY     66  37  34 S5        30.01S
COLUMBIA       SUNNY     55  50  82 CALM      29.98S
$$

TNZ017-018-042-046-047-241500-
NORTHEAST TENNESSEE

CITY           SKY/WX    TMP DP  RH WIND       PRES   REMARKS
TRI CITIES     PTSUNNY   55  32  41 E7        30.08S
ELIZABETHTON   SUNNY     54  34  47 CALM      30.08S
$$

TNZ012-013-036-069-073-074-241500-
CENTRAL EAST TENNESSEE

CITY           SKY/WX    TMP DP  RH WIND       PRES   REMARKS
KNOXVILLE      MOSUNNY   56  35  45 NE5       30.05
OAK RIDGE      MOSUNNY   59  33  37 VRB5      30.07S
$$

TNZ083-085-099-241500-
SOUTHEAST TENNESSEE

CITY           SKY/WX    TMP DP  RH WIND       PRES   REMARKS
CHATTANOOGA    MOSUNNY   59  40  49 VRB3      30.05S
$$

SKY/WX REPORTED AS FAIR MEANS FEW OR NO CLOUDS BELOW
12 THOUSAND FEET.




USA.gov is the U.S. government's official web portal to all federal, state and local government web resources and services.